記事タイトル:Comet C/2003 H3 (NEAT) 

最新の情報は「更新」や「再読み込み」ボタンを押してリロードしてご覧ください。

書き込み欄へ  ヘルプ
お名前: 佐藤 裕久   
Jet推進研究所のS. H. Pravdoの通報によると、NEATチームはハワイHaleakalaの1.2-m
Schmidt望遠鏡のCCD画像から、いて座に全光度17.2等の彗星を発見した。
約14″のコマと約4″かそれ以下の核がある。
NEO Confirmation Pageに公表され、他のCCD観測者によって確認された。
J. E. McGaha (Sabino Canyon 天文台、Tucson、アリゾナ州、0.3-m Schmidt-Cassegrain
 + CCD)の観測では、10″の微かな外側のコマと約5″の明るい核が見える。
J. Young(Table Mountain 天文台、Wrightwood、0.6-m 反射 + CCD)によると、約8″のコマ
とP.A.250°に16″の尾が見える。
また、P. R. HolvorcemとM. Schwartz (Tenagra IV 0.36-m Schmidt-Cassegrain +CCD, 
Nogales近郊, アリゾナ州)の観測では、28″のコマ、5月1.47日にm1 = 15.4-15.7。

発見位置は次のとおり、

     2003 UT             R.A. (2000) Decl.        m1
     Apr. 30.45200   19 43 46.25   -14 40 20.7   17.2

暫定放物線軌道要素と位置推算表は次のとおり、

Orbital elements:
    C/2003 H3 (NEAT)
T 2003 Oct. 27.074 TT                                   MPC
q   1.75468              (2000.0)            P               Q
                   Peri.   82.997       +0.606933       +0.063527
                   Node   270.627       -0.418564       +0.872907
e   1.0            Incl.   52.397       +0.675601       +0.483733
From 24 observations 2003 Apr. 30-May 1.

Ephemeris:
    C/2003 H3 (NEAT)
Date    TT    R. A. (2000) Decl.     Delta      r     Elong.  Phase   m1
2003 05 01    19 43.98   -14 31.2    2.390    2.821   104.8    20.2  15.9
2003 05 11    19 46.71   -11 32.0    2.174    2.732   113.0    19.9  15.6
2003 05 21    19 47.08   -08 05.8    1.972    2.645   121.4    19.1  15.2
2003 05 31    19 44.70   -04 09.5    1.790    2.559   129.6    17.8  14.8
2003 06 10    19 39.20   +00 17.5    1.632    2.474   137.1    16.2  14.5
2003 06 20    19 30.38   +05 11.7    1.503    2.392   142.7    14.9  14.2
2003 06 30    19 18.30   +10 22.0    1.406    2.312   144.7    14.7  13.9
2003 07 10    19 03.51   +15 29.8    1.344    2.235   142.1    16.2  13.6
2003 07 20    18 47.15   +20 13.6    1.314    2.161   135.7    19.2  13.4
2003 07 30    18 30.78   +24 15.1    1.313    2.092   127.5    22.7  13.3

(IAUC 8126、MPEC 2003-J02)
[2003年5月2日 21時14分6秒]

この記事への返信をどうぞ。
氏名
E-mail URL



記事一覧に戻る